{"data":{"norad_id":67147,"intl_designator":"2025-301Q","name":"KUIPER-00221","alt_names":[],"object_type":"PAYLOAD","status":"ACTIVE","operator":null,"country":"US","launch_date":"2025-12-16","launch_site_code":"AFETR","launch_vehicle":null,"mission":null,"orbit_class":"UNKNOWN","rcs_meters":null,"size_class":null,"mass_kg":null,"dimensions":null,"purposes":[],"wikipedia_slug":null,"has_3d_model":false,"image_url":null,"decayed_at":null,"tle_current":{"epoch":"2026-09-19T10:04:21.957312Z","epoch_age_seconds":199414,"freshness":"STALE","line1":"1 67147U 25301Q   26262.41969858  .00000993  00000+0  15927-3 0  9991","line2":"2 67147  51.9025 303.9611 0000615  68.4031 291.6997 14.79935296 42213","mean_motion":14.79935296,"eccentricity":6.15e-5,"inclination_deg":51.9025,"raan_deg":303.9611,"arg_perigee_deg":68.4031,"mean_anomaly_deg":291.6997,"bstar":0.00015927,"rev_number":4221,"period_min":97.301551215926,"perigee_km":629.09740986036,"apogee_km":629.95935270226,"semimajor_km":7007.6653812813,"source":"CELESTRAK","updated_at":"2026-09-21T09:00:16.458072Z"}}}